This is the latest recevied weather packets stored in our database for station/object WC4PEM-9. If no packets are shown the sender has not sent any weather packets the latest 10 day(s).
| Time | Temp. | Humidity | Pressure | Rain* | Wind** | Luminosity | Snow |
|---|---|---|---|---|---|---|---|
| 1787424451 | 33.89° C | 58% | 1015.2 hPa | 0 mm | - | - | - |
| 1787424151 | 34.44° C | 53% | 1015.1 hPa | 0 mm | - | - | - |
| 1787423966 | 33.89° C | 59% | 1015 hPa | 0 mm | - | - | - |
| 1787423851 | 33.89° C | 59% | 1015 hPa | 0 mm | - | - | - |
| 1787423629 | 33.89° C | 59% | 1015.1 hPa | 0 mm | - | - | - |
| 1787423551 | 33.89° C | 59% | 1015.1 hPa | 0 mm | - | - | - |
| 1787423390 | 33.89° C | 58% | 1015.2 hPa | 0 mm | - | - | - |
| 1787423251 | 33.89° C | 58% | 1015.2 hPa | 0 mm | - | - | - |
| 1787423057 | 33.89° C | 58% | 1015.3 hPa | 0 mm | - | - | - |
| 1787422951 | 33.89° C | 58% | 1015.3 hPa | 0 mm | - | - | - |
| 1787422815 | 33.89° C | 57% | 1015.3 hPa | 0 mm | - | - | - |
| 1787422651 | 33.89° C | 57% | 1015.3 hPa | 0 mm | - | - | - |
| 1787422442 | 33.89° C | 57% | 1015.3 hPa | 0 mm | - | - | - |
| 1787422351 | 33.89° C | 57% | 1015.3 hPa | 0 mm | - | - | - |
| 1787422051 | 34.44° C | 56% | 1015.2 hPa | 0 mm | - | - | - |
| 1787421832 | 33.89° C | 59% | 1015.1 hPa | 0 mm | - | - | - |
| 1787421751 | 33.89° C | 59% | 1015.1 hPa | 0 mm | - | - | - |
| 1787421625 | 33.89° C | 57% | 1015.2 hPa | 0 mm | - | - | - |
| 1787421451 | 33.89° C | 57% | 1015.2 hPa | 0 mm | - | - | - |
| 1787421248 | 33.89° C | 58% | 1015.4 hPa | 0 mm | - | - | - |
| 1787421151 | 33.89° C | 58% | 1015.4 hPa | 0 mm | - | - | - |
| 1787421012 | 33.33° C | 58% | 1015.5 hPa | 0 mm | - | - | - |
| 1787420851 | 33.33° C | 58% | 1015.5 hPa | 0 mm | - | - | - |
| 1787420551 | 33.33° C | 58% | 1015.6 hPa | 0 mm | - | - | - |
| 1787420251 | 33.89° C | 56% | 1015.8 hPa | 0 mm | - | - | - |
* Rain latest hour (hover to see other rain measurements)
** Current wind speed in m/s (hover to see current wind gust speed)